This is the latest recevied weather packets stored in our database for station/object K5OBH. If no packets are shown the sender has not sent any weather packets the latest 10 day(s).
| Time | Temp. | Humidity | Pressure | Rain* | Wind** | Luminosity | Snow |
|---|---|---|---|---|---|---|---|
| 1778032408 | 10° C | 83% | 1011.1 hPa | 0 mm | - | 0 W/m² | - |
| 1778032104 | 10° C | 83% | 1011 hPa | 0 mm | - | 0 W/m² | - |
| 1778031801 | 10° C | 84% | 1010.7 hPa | 0 mm | - | 0 W/m² | - |
| 1778031498 | 10° C | 83% | 1010.6 hPa | 0 mm | - | 0 W/m² | - |
| 1778031195 | 10° C | 84% | 1010.8 hPa | 0 mm | - | 0 W/m² | - |
| 1778030892 | 10° C | 84% | 1010.5 hPa | 0 mm | - | 0 W/m² | - |
| 1778030589 | 10° C | 83% | 1010.7 hPa | 0 mm | - | 1 W/m² | - |
| 1778030286 | 10° C | 83% | 1010.7 hPa | 0 mm | - | 1 W/m² | - |
| 1778029982 | 10° C | 83% | 1010.7 hPa | 0 mm | - | 1 W/m² | - |
| 1778029680 | 10° C | 83% | 1010.7 hPa | 0 mm | - | 1 W/m² | - |
| 1778029377 | 10.56° C | 83% | 1010.5 hPa | 0 mm | - | 2 W/m² | - |
| 1778029074 | 10.56° C | 82% | 1010.6 hPa | 0 mm | - | 4 W/m² | - |
| 1778028771 | 10° C | 82% | 1010.3 hPa | 0 mm | - | 6 W/m² | - |
| 1778028467 | 10.56° C | 82% | 1010.1 hPa | 0 mm | - | 7 W/m² | - |
| 1778028165 | 10.56° C | 81% | 1010 hPa | 0 mm | - | 9 W/m² | - |
| 1778027861 | 10.56° C | 82% | 1010.2 hPa | 0 mm | - | 10 W/m² | - |
| 1778027558 | 10.56° C | 81% | 1009.9 hPa | 0 mm | - | 11 W/m² | - |
| 1778027254 | 10.56° C | 80% | 1009.9 hPa | 0 mm | - | 13 W/m² | - |
| 1778026949 | 10.56° C | 80% | 1009.9 hPa | 0 mm | - | 16 W/m² | - |
| 1778026646 | 10.56° C | 80% | 1009.6 hPa | 0 mm | - | 23 W/m² | - |
| 1778026344 | 10.56° C | 80% | 1009.7 hPa | 0 mm | - | 23 W/m² | - |
| 1778026040 | 10.56° C | 79% | 1009.7 hPa | 0 mm | - | 25 W/m² | - |
| 1778025738 | 10.56° C | 79% | 1009.8 hPa | 0 mm | - | 25 W/m² | - |
| 1778025435 | 11.11° C | 79% | 1009.6 hPa | 0 mm | - | 29 W/m² | - |
| 1778025132 | 11.11° C | 79% | 1009.5 hPa | 0 mm | - | 37 W/m² | - |
* Rain latest hour (hover to see other rain measurements)
** Current wind speed in m/s (hover to see current wind gust speed)